Regional Weather Roundup
Issued by NWS Memphis, TN

Home | Current Version | Previous Version | Text Only | Print | Product List | Glossary On
Versions: 1 2 3 4 5 6 7 8 9 10 11 12 13 14 15 16 17 18 19 20 21 22 23 24 25 26 27 28 29 30 31 32 33 34 35 36 37 38 39 40 41 42 43 44 45 46 47 48 49 50
000
ASUS44 KMEG 241410
RWRMEG
MEMPHIS CWA HOURLY WEATHER ROUNDUP
NATIONAL WEATHER SERVICE MEMPHIS TN
900 AM CDT WED MAY 24 2017

...WEST TENNESSEE...

CITY           SKY/WX    TMP DP  RH WIND       PRES   REMARKS
MEMPHIS INTL   CLOUDY    63  59  87 NW12      29.58R
NWS MEMPHIS      N/A     62 N/A N/A MISG        N/A
JACKSON        LGT RAIN  58  57  97 NW7       29.55R
COVINGTON      MOSUNNY   61  57  88 NW8       29.57R
BOLIVAR        PTSUNNY   57  55  94 NW3       29.54S
LEXINGTON      CLOUDY    59  57  94 MISG      29.49R FOG
SELMER         PTSUNNY   57  55  94 NW8G14    29.51S FOG
SAVANNAH       CLOUDY    59  59 100 NW9G20    29.49R
DYERSBURG        N/A    N/A N/A N/A MISG        N/A
UNION CITY     MOSUNNY   59  55  88 NW7       29.54R
PARIS          CLOUDY    55  54  94 NW9       29.50S
HUNTINGDON     CLOUDY    57  55  94 VRB5      29.51R FOG


...EASTERN ARKANSAS...

CITY           SKY/WX    TMP DP  RH WIND       PRES   REMARKS
JONESBORO      SUNNY     62  55  77 NW7       29.60S
WEST MEMPHIS   CLOUDY    63  59  87 VRB6      29.58S
BATESVILLE     CLOUDY    57  52  82 W7        29.66R
WALNUT RIDGE   SUNNY     61  50  67 NW14      29.61S
BLYTHEVILLE    PTSUNNY   62  60  93 NW10      29.58R
NW BLYTHEVILLE PTSUNNY   61  55  82 NW10      29.58R
SEARCY         MOSUNNY   62  53  72 NW13G20   29.66S
STUTTGART      PTSUNNY   63  46  55 NW14      29.65S
PINE BLUFF     MOSUNNY   61  53  75 NW15      29.66S
MONTICELLO     MOSUNNY   62  55  77 W10       29.66S


...NORTH MISSISSIPPI...

CITY           SKY/WX    TMP DP  RH WIND       PRES   REMARKS
TUPELO         CLOUDY    61  57  87 W6        29.54R
OXFORD         MOSUNNY   57  55  94 MISG      29.60R
BATESVILLE     CLOUDY    61  57  88 CALM      29.60R
OLIVE BRANCH   PTSUNNY  N/A N/A N/A N9        29.57R
TUNICA         CLOUDY    61  59  94 W9        29.61R
CLARKSDALE       N/A     64  64 100 MISG      29.61S
CORINTH        RAIN      59  57  94 NW13      29.52S
GREENWOOD      CLOUDY    62  59  90 VRB3      29.62S
COLUMBUS       MOSUNNY   65  62  88 W16       29.54R
STARKVILLE     CLOUDY    63  57  82 W8G16     29.58R
GOLDEN TRIANGL PTSUNNY   63  55  77 NW12G20   29.53R


...SOUTHEAST MISSOURI...

CITY           SKY/WX    TMP DP  RH WIND       PRES   REMARKS
KENNETT        PTSUNNY   63  55  77 NW10G17   29.57R
MALDEN         MOSUNNY   63  54  72 NW9       29.59R
WEST PLAINS    CLOUDY    57  49  74 N10       29.66S
POPLAR BLUFF   MOSUNNY   60  54  80 NW10      29.59R
CAPE GIRARDEAU CLOUDY    60  52  74 N10       29.56S


...NORTHWEST ALABAMA...

CITY           SKY/WX    TMP DP  RH WIND       PRES   REMARKS
MUSCLE SHOALS  LGT RAIN  64  59  83 SW10      29.47F


...MIDDLE TENNESSEE...

CITY           SKY/WX    TMP DP  RH WIND       PRES   REMARKS
NASHVILLE      CLOUDY    63  60  90 SE3       29.47F
CLARKSVILLE    HVY RAIN  60  57  89 N10       29.48F FOG
COLUMBIA       PTSUNNY   61  59  94 CALM      29.44F FOG


...WESTERN KENTUCKY...

CITY           SKY/WX    TMP DP  RH WIND       PRES   REMARKS
PADUCAH        LGT RAIN  59  55  87 NW5       29.53S
FORT CAMPBELL  RAIN      59  59 100 N7        29.48F FOG


...CENTRAL ARKANSAS...

CITY           SKY/WX    TMP DP  RH WIND       PRES   REMARKS
LITTLE ROCK    MOSUNNY   60  53  77 NW15G23   29.66S


SKY/WX REPORTED AS FAIR MEANS FEW OR NO CLOUDS BELOW
12 THOUSAND FEET.




USA.gov is the U.S. government's official web portal to all federal, state and local government web resources and services.